Location: Unspecified
(0.0000°N, 0.0000°E)
Time: 13:28:55
(UTC+00:00)

JUGNU - Pass Details

Date: 21 February 2020
Orbit: 836 x 864 km, 20.0° (Epoch: 01 April)

Event Time Altitude Azimuth Distance (km) Brightness Sun altitude
Exits shadow 05:11:11 - 225° (SW) 3,168 ? -15.4°
Reaches altitude 10° 05:13:35 10° 212° (SSW) 2,481 ? -14.8°
Maximum altitude 05:18:00 21° 164° (SSE) 1,821 ? -13.7°
Drops below altitude 10° 05:22:26 10° 116° (ESE) 2,489 ? -12.6°
Sets 05:25:38 0° 100° (E) 3,426 ? -11.8°
